Location: Aiyede
(8.4833°N, 4.4500°E)
Time: 18:54:13
(UTC+00:00)

N. Korean satellite - Pass Details

Date: 27 November 2020
Orbit: 453 x 502 km, 97.2° (Epoch: 15 January)

Event Time Altitude Azimuth Distance (km) Brightness Sun altitude
Rises 04:30:26 0° 23° (NNE) 2,560 10.3 -16.9°
Reaches altitude 10° 04:32:36 10° 32° (NNE) 1,686 9.4 -16.3°
Maximum altitude 04:35:59 37° 100° (E) 790 8.3 -15.6°
Drops below altitude 10° 04:39:23 10° 169° (SSE) 1,702 9.7 -14.8°
Sets 04:41:35 0° 177° (S) 2,588 10.6 -14.3°
